Regional Weather Roundup
Issued by NWS

Home | Current Version | Previous Version | Graphics & Text | Print | Product List | Glossary On
Versions: 1 2 3 4 5 6 7 8 9 10 11 12 13 14 15 16 17 18 19 20 21 22 23 24 25 26 27 28 29 30 31 32 33 34 35 36 37 38 39 40 41 42 43 44 45 46 47 48 49 50
000
ASUS43 KOAX 210102
RWRNE

WEATHER ROUNDUP FOR NEBRASKA
NATIONAL WEATHER SERVICE OMAHA NE
700 PM CST THU NOV 20 2014

NOTES: SATELLITE DATA IS BEING USED TO AUGMENT CLOUD COVER ABOVE
       12000 FEET.
       "FAIR" INDICATES FEW OR NO CLOUDS BELOW 12,000 FEET WITH NO
       SIGNIFICANT WEATHER AND/OR OBSTRUCTIONS TO VISIBILITY.

  * THESE STATIONS DO NOT REPORT WEATHER SUCH AS RAIN...SNOW OR FOG.

NEZ001>004-019>022-054>056-210200-
NEBRASKA PANHANDLE

CITY           SKY/WX    TMP DP  RH WIND       PRES   REMARKS
SCOTTSBLUFF    CLEAR     30  16  56 E7        29.94R WCI  23
ALLIANCE       CLEAR     28  17  63 SE9       29.94R WCI  19
CHADRON        CLEAR     26  20  77 SW3       29.93R
KIMBALL        PTCLDY    35  11  37 W5        29.95S WCI  31
SIDNEY         PTCLDY    33  16  49 S9        29.96R WCI  25
$$

NEZ057>060-069>072-079>082-210200-
SOUTHWEST NEBRASKA

CITY           SKY/WX    TMP DP  RH WIND       PRES   REMARKS
NORTH PLATTE   CLEAR     23  17  78 E7        30.04R WCI  15
IMPERIAL       CLEAR     28  15  58 SE8       30.01R WCI  20
LEXINGTON      PTCLDY    29  20  69 SE5       30.08R WCI  24
MCCOOK         CLEAR     30  19  63 E8        30.06R WCI  22
$$

NEZ005>010-023>029-035>040-094-210200-
NORTH CENTRAL NEBRASKA

CITY           SKY/WX    TMP DP  RH WIND       PRES   REMARKS
VALENTINE      PTCLDY    23  18  81 E8        30.02R WCI  14
AINSWORTH      PTCLDY    20  18  91 E8        30.03S WCI  11
BROKEN BOW     CLEAR     26  18  71 S7        30.07R WCI  18
ORD            MOCLDY    27  19  72 SE12      30.10R WCI  17
$$

NEZ041-046>049-061>064-073>077-083>087-210200-
SOUTH CENTRAL NEBRASKA

CITY           SKY/WX    TMP DP  RH WIND       PRES   REMARKS
GRAND ISLAND   CLEAR     25  19  78 E8        30.14R WCI  16
AURORA         CLEAR     22  19  85 E7        30.15R WCI  14
HASTINGS       PTCLDY    30  19  63 E8        30.11S WCI  22
KEARNEY *      PTCLDY    27  18  69 E8        30.11S WCI  18
YORK           CLEAR     23  19  86 E7        30.17R WCI  15
$$

NEZ011>018-030>034-042>045-210200-
NORTHEAST NEBRASKA

CITY           SKY/WX    TMP DP  RH WIND       PRES   REMARKS
NORFOLK        PTCLDY    19  15  84 SE7       30.16S WCI  10
ALBION         PTCLDY    22  17  79 SE5       30.15S WCI  16
BLAIR          PTCLDY    23  17  76 E5        30.20S WCI  17
COLUMBUS *     PTCLDY    21  12  68 E6        30.19S WCI  14
FREMONT        PTCLDY    24  19  79 CALM      30.21S
TEKAMAH        CLOUDY    23  16  74 E3        30.23R
$$

NEZ050>053-065>068-078-088>093-210200-
SOUTHEAST NEBRASKA

CITY           SKY/WX    TMP DP  RH WIND       PRES   REMARKS
LINCOLN        PTCLDY    24  17  74 E7        30.22R WCI  16
OMAHA EPPLEY   PTCLDY    21  15  78 E6        30.24S WCI  13
BEATRICE       CLEAR     26  19  72 E3        30.19R
FALLS CITY     FAIR      25  18  74 E5        30.23R WCI  19
NEBRASKA CITY  PTCLDY    22  15  74 E3        30.22R
$$

NEZ044-045-051>053-067-210200-
OMAHA AREA

CITY           SKY/WX    TMP DP  RH WIND       PRES   REMARKS
OMAHA EPPLEY   PTCLDY    21  15  78 E6        30.24S WCI  13
BLAIR          PTCLDY    23  17  76 E5        30.20S WCI  17
FREMONT        PTCLDY    24  19  79 CALM      30.21S
OFFUTT AFB     CLEAR     19  15  84 NE2       30.22S
WAHOO          FAIR      21  15  78 E5        30.21S WCI  14
$$


USA.gov is the U.S. government's official web portal to all federal, state and local government web resources and services.